Estación de Peldehue
Ultimos registro cada 15 minutos 30
| N° | Estación | Fecha / Hora | Temperatura | Humedad | Lluvia | Velocidad | Dirección | Radiación | Presion |
| 30 | Peldehue | 06-05-2026 07:15 | 7,6 | 87,5 | 0 | 0 | 211 | 1,9 | 934,9 |
| 29 | Peldehue | 06-05-2026 07:00 | 7,3 | 87 | 0 | 0 | 212 | 0,6 | 935 |
| 28 | Peldehue | 06-05-2026 06:45 | 8,1 | 83,9 | 0 | 0 | 208 | 0,6 | 934,5 |
| 27 | Peldehue | 06-05-2026 06:30 | 9,1 | 84,1 | 0 | 0 | 208 | 0,6 | 934,3 |
| 26 | Peldehue | 06-05-2026 06:15 | 9,1 | 84,6 | 0 | 0 | 208 | 0,6 | 934,2 |
| 25 | Peldehue | 06-05-2026 06:00 | 8,5 | 86,2 | 0 | 0 | 209 | 0,6 | 934,1 |
| 24 | Peldehue | 06-05-2026 05:45 | 7,8 | 85,1 | 0 | 0 | 209 | 0,6 | 933,8 |
| 23 | Peldehue | 06-05-2026 05:30 | 7,8 | 85,9 | 0 | 0 | 211 | 0,6 | 933,7 |
| 22 | Peldehue | 06-05-2026 05:15 | 8,7 | 85,6 | 0 | 0 | 209 | 0,6 | 933,6 |
| 21 | Peldehue | 06-05-2026 05:00 | 9,1 | 85,2 | 0 | 0 | 209 | 0,6 | 933,4 |
| 20 | Peldehue | 06-05-2026 04:45 | 8,6 | 84,6 | 0 | 0 | 209 | 0,6 | 933,5 |
| 19 | Peldehue | 06-05-2026 04:30 | 8,2 | 86,2 | 0 | 0 | 211 | 0,6 | 933,4 |
| 18 | Peldehue | 06-05-2026 04:15 | 8,8 | 82,8 | 0 | 0 | 209 | 0,6 | 933,1 |
| 17 | Peldehue | 06-05-2026 04:00 | 9 | 83 | 0 | 0 | 209 | 0,6 | 933,1 |
| 16 | Peldehue | 06-05-2026 03:45 | 8,7 | 83,3 | 0 | 0 | 209 | 0,6 | 933 |
| 15 | Peldehue | 06-05-2026 03:30 | 9,4 | 83,3 | 0 | 0 | 209 | 0,6 | 933,1 |
| 14 | Peldehue | 06-05-2026 03:15 | 9,9 | 83,3 | 0 | 0 | 209 | 0,6 | 932,9 |
| 13 | Peldehue | 06-05-2026 03:00 | 10,2 | 82,5 | 0 | 0 | 212 | 0,6 | 933,2 |
| 12 | Peldehue | 06-05-2026 02:45 | 10,6 | 81,9 | 0 | 0 | 215 | 0,6 | 933,5 |
| 11 | Peldehue | 06-05-2026 02:30 | 10,9 | 81 | 0 | 0 | 215 | 0,6 | 933,4 |
| 10 | Peldehue | 06-05-2026 02:15 | 10,7 | 80,5 | 0 | 0 | 215 | 0,6 | 933,9 |
| 9 | Peldehue | 06-05-2026 02:00 | 10,8 | 80,6 | 0 | 0 | 215 | 0,6 | 933,9 |
| 8 | Peldehue | 06-05-2026 01:45 | 10,9 | 80,6 | 0 | 0 | 215 | 0,6 | 933,9 |
| 7 | Peldehue | 06-05-2026 01:30 | 11 | 79,1 | 0 | 0 | 215 | 0,6 | 934 |
| 6 | Peldehue | 06-05-2026 01:15 | 11 | 80,2 | 0 | 0 | 215 | 0,6 | 934,2 |
| 5 | Peldehue | 06-05-2026 01:00 | 11,2 | 82,1 | 0 | 0 | 215 | 0,6 | 934,4 |
| 4 | Peldehue | 06-05-2026 00:45 | 11,2 | 80,7 | 0 | 0 | 215 | 0,6 | 934,3 |
| 3 | Peldehue | 06-05-2026 00:30 | 11,4 | 81,3 | 0 | 0 | 215 | 0,6 | 934,5 |
| 2 | Peldehue | 06-05-2026 00:15 | 11,4 | 80,4 | 0 | 0 | 215 | 0,6 | 934,5 |
| 1 | Peldehue | 06-05-2026 00:00 | 11,4 | 80,4 | 0 | 0 | 215 | 0,6 | 934,3 |